Buffalo, NY

8:26 PM EST on November 13, 2019 (GMT -0500)
Buffalo Niagara International

Weather History for KBUF - October, 2019

Change the Weather History Date:

Sunday, October 13, 2019

  Actual Average Record
Temperature  
Mean Temperature 52 °F 52 °F  
Max Temperature 66 °F 60 °F 82 °F (1969)
Min Temperature 37 °F 43 °F 30 °F (1993)
Degree Days  
Heating Degree Days 13 13  
Month to date heating degree days 133 147  
Since 1 July heating degree days 178 309  
Cooling Degree Days 0 0  
Month to date cooling degree days 7 0  
Year to date cooling degree days 604 540  
Growing Degree Days 2 (Base 50)    
Moisture  
Dew Point 32 °F    
Average Humidity 54    
Maximum Humidity 82    
Minimum Humidity 26    
Precipitation  
Precipitation 0.00 in 0.11 in 1.59 in (1885)
Month to date precipitation 1.36 1.59  
Year to date precipitation 36.01 30.65  
Snow  
Snow 0.00 in 0.00 in 14.00 in (2006)
Month to date snowfall 0.0 0.2  
Since 1 July snowfall 0.0 0.2  
Since 1 September snowfall 0.0 0.2  
Snow Depth 0.00 in    
Sea Level Pressure  
Sea Level Pressure 29.95 in    
Wind  
Wind Speed 12 mph (South)    
Max Wind Speed 23 mph    
Max Gust Speed 29 mph    
Visibility 10 miles    
Events      
T = Trace of Precipitation, MM = Missing Value Source: NWS Daily Summary

Daily Weather History Graph

Daily Weather History Graph

Search for Another Location

Airport or City:

Astronomy

Oct. 13, 2019 Rise Set
Actual Time 7:25 AM EDT 6:35 PM EDT
Civil Twilight 6:57 AM EDT 7:04 PM EDT
Nautical Twilight 6:24 AM EDT 7:37 PM EDT
Astronomical Twilight 5:51 AM EDT 8:10 PM EDT
Moon 6:59 PM EDT (10/13) 6:55 AM EDT (10/13)
Length of Visible Light 12h 07m
Length of Day
11h 10m
Full, 100% of the Moon is Illuminated
Oct 13
Full
Oct 13
Full
Oct 21
Last Quarter
Oct 27
New
Nov 4
First Quarter

Hourly Weather History & Observations

Time (EDT) Temp. Windchill Dew Point Humidity Pressure Visibility Wind Dir Wind Speed Gust Speed Precip Events Conditions
12:54 AM 42.1 °F 35.7 °F 35.1 °F 76% 30.05 in 10.0 mi SSW 11.5 mph - N/A   Clear
1:54 AM 42.1 °F 35.7 °F 33.1 °F 70% 30.05 in 10.0 mi South 11.5 mph - N/A   Partly Cloudy
2:54 AM 41.0 °F 35.2 °F 33.1 °F 73% 30.05 in 10.0 mi South 9.2 mph - N/A   Partly Cloudy
3:54 AM 39.9 °F 34.5 °F 32.0 °F 73% 30.04 in 10.0 mi South 8.1 mph - N/A   Clear
4:54 AM 39.0 °F 33.4 °F 32.0 °F 76% 30.03 in 10.0 mi South 8.1 mph - N/A   Clear
5:54 AM 37.9 °F 32.1 °F 32.0 °F 79% 30.05 in 10.0 mi South 8.1 mph - N/A   Clear
6:54 AM 37.0 °F 31.0 °F 32.0 °F 82% 30.05 in 10.0 mi South 8.1 mph - N/A   Clear
7:54 AM 39.0 °F 32.8 °F 32.0 °F 76% 30.05 in 10.0 mi SSE 9.2 mph - N/A   Partly Cloudy
9:54 AM 48.9 °F - 33.1 °F 54% 30.02 in 10.0 mi South 16.1 mph - N/A   Partly Cloudy
10:54 AM 52.0 °F - 34.0 °F 50% 30.01 in 10.0 mi South 13.8 mph - N/A   Partly Cloudy
11:54 AM 55.9 °F - 33.1 °F 42% 29.99 in 10.0 mi SSW 15.0 mph - N/A   Partly Cloudy
12:54 PM 60.1 °F - 32.0 °F 35% 29.96 in 10.0 mi SSW 13.8 mph - N/A   Scattered Clouds
1:54 PM 63.0 °F - 28.9 °F 28% 29.91 in 10.0 mi South 16.1 mph 27.6 mph N/A   Partly Cloudy
2:54 PM 63.0 °F - 30.9 °F 30% 29.88 in 10.0 mi SSW 12.7 mph 21.9 mph N/A   Mostly Cloudy
3:54 PM 64.9 °F - 30.0 °F 27% 29.86 in 10.0 mi SSW 13.8 mph - N/A   Scattered Clouds
5:54 PM 62.1 °F - 30.9 °F 31% 29.84 in 10.0 mi South 11.5 mph - N/A   Partly Cloudy
6:54 PM 59.0 °F - 30.0 °F 33% 29.85 in 10.0 mi SSW 15.0 mph - N/A   Partly Cloudy
7:54 PM 57.0 °F - 30.9 °F 37% 29.84 in 10.0 mi South 11.5 mph - N/A   Partly Cloudy
8:54 PM 55.0 °F - 30.9 °F 40% 29.85 in 10.0 mi South 12.7 mph - N/A   Partly Cloudy
9:54 PM 57.0 °F - 28.9 °F 34% 29.84 in 10.0 mi SSW 15.0 mph - N/A   Partly Cloudy
10:54 PM 55.0 °F - 30.0 °F 38% 29.84 in 10.0 mi South 12.7 mph - N/A   Partly Cloudy
11:54 PM 57.0 °F - 30.9 °F 37% 29.83 in 10.0 mi SSW 16.1 mph - N/A   Mostly Cloudy